This demonstration page uses our WeatherBlox Daily Observations layout. Learn more.

Left ArrowRight Arrow

34.02893, -84.19858

Hourly Observations for April 1, 2019

Temp ( °F °C ) Dew Point ( °F °C ) Humidity (%) Winds ( mph kmh ) Pressure ( in mb ) Visibility ( mi km ) Precip ( " mm )
12:53 am 00:53 Clear 42 5.6 24 -4.4 49 49 NNW 10 17 30.18 1022 10 16 0.00 0.00
1:53 am 01:53 Clear 42 5.6 24 -4.4 49 49 NNW 14 22 30.19 1022 10 16 0.00 0.00
2:53 am 02:53 Clear 39 3.9 24 -4.4 55 55 NNW 7 11 30.18 1022 10 16 0.00 0.00
3:53 am 03:53 Clear 38 3.3 23 -5 55 55 N 7 11 30.19 1022 10 16 0.00 0.00
4:53 am 04:53 Clear 34 1.1 23 -5 64 64 N 3 6 30.19 1022 10 16 0.00 0.00
5:53 am 05:53 Clear 33 0.6 23 -5 66 66 N 3 6 30.20 1023 10 16 0.00 0.00
6:53 am 06:53 Clear 32 0 24 -4.4 73 73 N 3 6 30.22 1023 10 16 0.00 0.00
7:53 am 07:53 Sunny 33 0.6 24 -4.4 70 70 N 3 6 30.26 1025 10 16 0.00 0.00
8:53 am 08:53 Sunny 38 3.3 25 -3.9 60 60 NNE 5 7 30.27 1025 10 16 0.00 0.00
9:53 am 09:53 Sunny 43 6.1 23 -5 45 45 Calm 30.29 1026 10 16 0.00 0.00
10:53 am 10:53 Sunny 46 7.8 20 -6.7 35 35 E 9 15 30.29 1026 10 16 0.00 0.00
11:53 am 11:53 Sunny 50 10 20 -6.7 30 30 VRB 7 11 30.29 1026 10 16 0.00 0.00
12:53 pm 12:53 Sunny 53 11.7 21 -6.1 28 28 undefined N/A 30.26 1025 10 16 0.00 0.00
1:53 pm 13:53 Sunny 55 12.8 21 -6.1 26 26 VRB 5 7 30.23 1024 10 16 0.00 0.00
2:53 pm 14:53 Sunny 57 13.9 21 -6.1 25 25 VRB 3 6 30.21 1023 10 16 0.00 0.00
3:53 pm 15:53 Sunny 58 14.4 21 -6.1 24 24 VRB 3 6 30.18 1022 10 16 0.00 0.00
4:53 pm 16:53 Sunny 59 15 21 -6.1 23 23 VRB 5 7 30.16 1022 10 16 0.00 0.00
5:53 pm 17:53 Sunny 59 15 21 -6.1 23 23 ESE 8 13 30.16 1021 10 16 0.00 0.00
6:53 pm 18:53 Sunny 58 14.4 21 -6.1 24 24 VRB 6 9 30.16 1021 10 16 0.00 0.00
7:53 pm 19:53 Sunny 55 12.8 21 -6.1 26 26 VRB 5 7 30.16 1021 10 16 0.00 0.00
8:53 pm 20:53 Clear 51 10.6 23 -5 33 33 Calm 30.17 1022 10 16 0.00 0.00
9:53 pm 21:53 Clear 50 10 22 -5.6 33 33 E 5 7 30.17 1022 10 16 0.00 0.00
10:53 pm 22:53 Clear 49 9.4 23 -5 36 36 VRB 3 6 30.18 1022 10 16 0.00 0.00
11:53 pm 23:53 Clear 50 10 23 -5 35 35 VRB 5 7 30.18 1022 10 16 0.00 0.00

Powered by AerisWeather